Weather History for Hibbing, MN

Change the Weather History Date:

Monday, February 6, 2012

  Actual Average Record
Temperature  
Mean Temperature 19 °F -  
Max Temperature 30 °F 20 °F 45 °F (1991)
Min Temperature 8 °F -4 °F -34 °F (1967)
Degree Days  
Heating Degree Days 46    
Moisture  
Dew Point 16 °F    
Average Humidity 80    
Maximum Humidity 95    
Minimum Humidity 68    
Precipitation  
Precipitation 0.00 in - - ()
Sea Level Pressure  
Sea Level Pressure 30.18 in    
Wind  
Wind Speed 6 mph (North)    
Max Wind Speed 18 mph    
Max Gust Speed 24 mph    
Visibility 9 miles    
Events      
Averages and records for this station are not official NWS values.
T = Trace of Precipitation, MM = Missing Value Source: NWS Daily Summary

Daily Weather History Graph

Daily Weather History Graph

Search for Another Location

Airport:

Trip Planner

Search our weather history database for the weather conditions in past years. The results will help you decide how hot, cold, wet, or windy it might be!

Date:

Astronomy

Feb. 06, 2012 Rise Set
Actual Time 7:31 AM CST 5:20 PM CST
Civil Twilight 6:58 AM CST 5:52 PM CST
Nautical Twilight 6:22 AM CST 6:29 PM CST
Astronomical Twilight 5:46 AM CST 7:04 PM CST
Moon 4:23 PM CST (2/6) 6:25 AM CST (2/6)
Length of Visible Light 10h 53m
Length of Day
9h 49m
Waxing Gibbous, 98% of the Moon is Illuminated
Feb 6
Waxing Gibbous
Feb 7
Full
Feb 14
Last Quarter
Feb 21
New
Feb 29
First Quarter

Hourly Weather History & Observations

Time (CST) Temp. Windchill Dew Point Humidity Pressure Visibility Wind Dir Wind Speed Gust Speed Precip Events Conditions
12:53 AM 21.9 °F - 19.0 °F 89% 30.07 in 10.0 mi Calm Calm - N/A   Clear
1:53 AM 19.9 °F 14.9 °F 18.0 °F 92% 30.06 in 8.0 mi SSW 3.5 mph - N/A   Clear
2:53 AM 16.0 °F - 12.9 °F 88% 30.06 in 5.0 mi Calm Calm - N/A   Clear
3:53 AM 14.0 °F - 12.0 °F 92% 30.04 in 5.0 mi Calm Calm - N/A   Clear
4:53 AM 12.0 °F 5.9 °F 10.9 °F 95% 30.02 in 7.0 mi SSW 3.5 mph - N/A   Clear
5:53 AM 10.0 °F - 7.0 °F 87% 30.03 in 9.0 mi Calm Calm - N/A   Clear
6:53 AM 9.0 °F - 6.1 °F 88% 30.05 in 10.0 mi Calm Calm - N/A   Clear
7:53 AM 8.1 °F - 3.9 °F 83% 30.07 in 10.0 mi Calm Calm - N/A   Clear
8:53 AM 25.0 °F 16.3 °F 21.9 °F 88% 30.07 in 10.0 mi NW 8.1 mph - N/A   Clear
9:53 AM 28.0 °F 18.1 °F 24.1 °F 85% 30.09 in 10.0 mi NNW 11.5 mph - N/A   Clear
10:53 AM 30.0 °F 19.5 °F 24.1 °F 79% 30.11 in 10.0 mi NNW 13.8 mph - N/A   Partly Cloudy
11:53 AM 30.9 °F 20.2 °F 24.1 °F 76% 30.12 in 10.0 mi North 15.0 mph - N/A   Partly Cloudy
12:23 PM 30.2 °F 21.3 °F 24.8 °F 80% 30.06 in 10.0 mi North 10.4 mph - N/A   Overcast
12:53 PM 30.9 °F 22.2 °F 24.1 °F 76% 30.14 in 10.0 mi North 10.4 mph - N/A   Overcast
1:53 PM 30.0 °F 20.0 °F 24.1 °F 79% 30.17 in 10.0 mi NNW 12.7 mph - N/A   Overcast
2:53 PM 30.0 °F 18.7 °F 23.0 °F 75% 30.20 in 10.0 mi North 16.1 mph - N/A   Overcast
3:53 PM 28.9 °F 16.5 °F 21.0 °F 72% 30.23 in 10.0 mi NNW 18.4 mph - N/A   Overcast
4:53 PM 28.0 °F 18.1 °F 21.0 °F 75% 30.26 in 10.0 mi North 11.5 mph - N/A   Overcast
5:53 PM 28.0 °F 16.1 °F 19.9 °F 72% 30.29 in 10.0 mi North 16.1 mph 24.2 mph N/A   Overcast
6:53 PM 27.0 °F 14.7 °F 19.0 °F 72% 30.32 in 10.0 mi North 16.1 mph 24.2 mph N/A   Overcast
7:53 PM 24.1 °F 11.5 °F 15.1 °F 69% 30.36 in 10.0 mi North 15.0 mph 23.0 mph N/A   Overcast
8:16 PM 21.2 °F 7.3 °F 12.2 °F 68% 30.28 in 10.0 mi North 16.1 mph 23.0 mph N/A   Scattered Clouds
8:53 PM 19.9 °F 5.2 °F 12.0 °F 71% 30.38 in 10.0 mi North 17.3 mph - N/A   Clear
9:53 PM 18.0 °F 11.1 °F 10.0 °F 71% 30.43 in 10.0 mi NNE 4.6 mph 17.3 mph N/A   Scattered Clouds
10:53 PM 16.0 °F 5.3 °F 8.1 °F 71% 30.46 in 10.0 mi NNE 8.1 mph - N/A   Clear
11:53 PM 12.9 °F 2.6 °F 6.1 °F 74% 30.49 in 10.0 mi North 6.9 mph - N/A   Clear